Location: Blackie
(50.6050°N, 113.6230°W)
Time: 07:57:15
(UTC+00:00)

N. Korean satellite - Pass Details

Date: 04 December 2021
Orbit: 446 x 491 km, 97.3° (Epoch: 18 January)

Event Time Altitude Azimuth Distance (km) Brightness Sun altitude
Rises 14:07:19 0° 359° (N) 2,475 9.9 -10.7°
Reaches altitude 10° 14:09:53 10° 338° (NNW) 1,591 8.8 -10.3°
Maximum altitude 14:12:06 17° 297° (WNW) 1,240 8.0 -10.0°
Drops below altitude 10° 14:14:17 10° 256° (WSW) 1,577 8.7 -9.7°
Sets 14:16:51 0° 235° (SW) 2,451 9.8 -9.3°
